| time (UTC) | temp F | wind direction | speed MPH | gust MPH | rain 1hr in | rain 24hr in | rain mn in | humidity % | barometer mb |
| 20260507135004 | 64 | 157 | 7.0 | 12.0 | 0.00 | 0.00 | 0.00 | 54 | 1015.0 |
| 20260507134005 | 64 | 146 | 6.0 | 17.0 | 0.00 | 0.00 | 0.00 | 52 | 1014.9 |
| 20260507133504 | 64 | 142 | 7.0 | 17.0 | 0.00 | 0.00 | 0.00 | 54 | 1014.9 |
| 20260507132504 | 64 | 173 | 7.0 | 13.0 | 0.00 | 0.00 | 0.00 | 54 | 1015.0 |
| 20260507132004 | 64 | 154 | 7.0 | 14.0 | 0.00 | 0.00 | 0.00 | 56 | 1015.0 |
| 20260507130505 | 63 | 194 | 8.0 | 13.0 | 0.00 | 0.00 | 0.00 | 57 | 1015.1 |
| 20260507130005 | 62 | 182 | 6.0 | 12.0 | 0.00 | 0.00 | 0.00 | 59 | 1015.0 |
| 20260507125505 | 62 | 191 | 6.0 | 17.0 | 0.00 | 0.00 | 0.00 | 57 | 1015.1 |
| 20260507124504 | 62 | 166 | 6.0 | 15.0 | 0.00 | 0.00 | 0.00 | 58 | 1015.1 |
| 20260507123505 | 61 | 143 | 6.0 | 10.0 | 0.00 | 0.00 | 0.00 | 57 | 1015.1 |
| 20260507123005 | 62 | 167 | 5.0 | 10.0 | 0.00 | 0.00 | 0.00 | 56 | 1015.1 |
| 20260507122504 | 62 | 197 | 5.0 | 10.0 | 0.00 | 0.00 | 0.00 | 56 | 1015.1 |
| 20260507122005 | 62 | 144 | 6.0 | 10.0 | 0.00 | 0.00 | 0.00 | 55 | 1015.2 |
| 20260507121505 | 62 | 170 | 5.0 | 10.0 | 0.00 | 0.00 | 0.00 | 55 | 1015.2 |
| 20260507121005 | 63 | 176 | 6.0 | 14.0 | 0.00 | 0.00 | 0.00 | 54 | 1015.2 |
| 20260507120504 | 63 | 157 | 6.0 | 14.0 | 0.00 | 0.00 | 0.00 | 55 | 1015.3 |
| 20260507120006 | 63 | 152 | 5.0 | 13.0 | 0.00 | 0.00 | 0.00 | 57 | 1015.3 |
| 20260507115505 | 63 | 207 | 6.0 | 13.0 | 0.00 | 0.00 | 0.00 | 57 | 1015.3 |
| 20260507115005 | 63 | 143 | 9.0 | 13.0 | 0.00 | 0.00 | 0.00 | 54 | 1015.3 |
| 20260507114004 | 63 | 181 | 8.0 | 13.0 | 0.00 | 0.00 | 0.00 | 55 | 1015.3 |
| 20260507113505 | 62 | 168 | 7.0 | 13.0 | 0.00 | 0.00 | 0.00 | 56 | 1015.3 |
| 20260507112504 | 62 | 155 | 8.0 | 12.0 | 0.00 | 0.00 | 0.00 | 55 | 1015.3 |
| 20260507110504 | 62 | 159 | 6.0 | 12.0 | 0.00 | 0.00 | 0.00 | 60 | 1015.4 |
| 20260507110005 | 61 | 178 | 6.0 | 12.0 | 0.00 | 0.00 | 0.00 | 59 | 1015.5 |
| 20260507105005 | 61 | 205 | 5.0 | 12.0 | 0.00 | 0.00 | 0.00 | 59 | 1015.5 |
| 20260507104505 | 60 | 189 | 5.0 | 12.0 | 0.00 | 0.00 | 0.00 | 61 | 1015.5 |
| 20260507103504 | 59 | 186 | 6.0 | 12.0 | 0.00 | 0.00 | 0.00 | 60 | 1015.5 |
| 20260507103005 | 59 | 178 | 7.0 | 13.0 | 0.00 | 0.00 | 0.00 | 59 | 1015.4 |
| 20260507102505 | 59 | 165 | 7.0 | 13.0 | 0.00 | 0.00 | 0.00 | 60 | 1015.4 |
| 20260507101504 | 60 | 148 | 7.0 | 12.0 | 0.00 | 0.00 | 0.00 | 56 | 1015.4 |
| 20260507100005 | 62 | 158 | 7.0 | 15.0 | 0.00 | 0.00 | 0.00 | 58 | 1015.5 |
| 20260507095004 | 62 | 150 | 5.0 | 12.0 | 0.00 | 0.00 | 0.00 | 61 | 1015.4 |
| 20260507094505 | 61 | 173 | 6.0 | 12.0 | 0.00 | 0.00 | 0.00 | 63 | 1015.4 |
| 20260507092504 | 59 | 147 | 7.0 | 13.0 | 0.00 | 0.00 | 0.00 | 65 | 1015.5 |
| 20260507092004 | 59 | 134 | 6.0 | 13.0 | 0.00 | 0.00 | 0.00 | 69 | 1015.4 |
| 20260507091504 | 59 | 179 | 6.0 | 13.0 | 0.00 | 0.00 | 0.00 | 69 | 1015.4 |
| 20260507091004 | 58 | 170 | 5.0 | 12.0 | 0.00 | 0.00 | 0.00 | 70 | 1015.5 |
| 20260507090504 | 58 | 151 | 5.0 | 12.0 | 0.00 | 0.00 | 0.00 | 70 | 1015.5 |
| 20260507085504 | 58 | 144 | 5.0 | 9.0 | 0.00 | 0.00 | 0.00 | 71 | 1015.6 |
| 20260507084005 | 57 | 152 | 3.0 | 9.0 | 0.00 | 0.00 | 0.00 | 74 | 1015.6 |
| 20260507082505 | 55 | 132 | 3.0 | 8.0 | 0.00 | 0.00 | 0.00 | 77 | 1015.6 |
| 20260507081004 | 54 | 179 | 2.0 | 7.0 | 0.00 | 0.00 | 0.00 | 80 | 1015.6 |
| 20260507075504 | 53 | 147 | 2.0 | 6.0 | 0.00 | 0.00 | 0.00 | 81 | 1015.5 |
| 20260507075005 | 53 | 87 | 3.0 | 6.0 | 0.00 | 0.00 | 0.00 | 80 | 1015.5 |
| 20260507074005 | 52 | 87 | 3.0 | 7.0 | 0.00 | 0.00 | 0.00 | 80 | 1015.4 |
| 20260507073504 | 52 | 86 | 3.0 | 7.0 | 0.00 | 0.00 | 0.00 | 80 | 1015.4 |
| 20260507072504 | 52 | 133 | 3.0 | 6.0 | 0.00 | 0.00 | 0.00 | 80 | 1015.4 |
| 20260507070009 | 51 | 123 | 3.0 | 7.0 | 0.00 | 0.00 | 0.00 | 80 | 1015.3 |
| 20260507064505 | 50 | 135 | 2.0 | 6.0 | 0.00 | 0.00 | 0.00 | 82 | 1015.2 |
| 20260507064005 | 50 | 114 | 2.0 | 6.0 | 0.00 | 0.00 | 0.00 | 82 | 1015.2 |
| 20260507063505 | 49 | 131 | 1.0 | 3.0 | 0.00 | 0.00 | 0.00 | 83 | 1015.2 |
| 20260507062005 | 49 | 139 | 2.0 | 3.0 | 0.00 | 0.00 | 0.00 | 82 | 1015.4 |
| 20260507061504 | 48 | 146 | 2.0 | 3.0 | 0.00 | 0.00 | 0.00 | 82 | 1015.3 |
| 20260507061004 | 48 | 146 | 2.0 | 3.0 | 0.00 | 0.00 | 0.00 | 82 | 1015.3 |
| 20260507055504 | 48 | 123 | 1.0 | 5.0 | 0.00 | 0.00 | 0.00 | 82 | 1015.1 |
| 20260507052004 | 48 | 107 | 1.0 | 2.0 | 0.00 | 0.00 | 0.00 | 80 | 1014.8 |
| 20260507050505 | 48 | 117 | 2.0 | 3.0 | 0.00 | 0.00 | 0.00 | 80 | 1014.9 |
| 20260507050006 | 48 | 100 | 1.0 | 3.0 | 0.00 | 0.00 | 0.00 | 79 | 1014.8 |
| 20260507043504 | 48 | 151 | 2.0 | 7.0 | 0.00 | 0.00 | 0.00 | 78 | 1014.7 |
| 20260507042505 | 48 | 120 | 2.0 | 6.0 | 0.00 | 0.00 | 0.00 | 78 | 1014.6 |
| 20260507042004 | 49 | 77 | 2.0 | 6.0 | 0.00 | 0.00 | 0.00 | 77 | 1014.7 |
| 20260507041504 | 49 | 97 | 2.0 | 6.0 | 0.00 | 0.00 | 0.00 | 77 | 1014.7 |
| 20260507041004 | 49 | 105 | 2.0 | 6.0 | 0.00 | 0.00 | 0.00 | 77 | 1014.7 |
| 20260507035504 | 49 | 90 | 3.0 | 7.0 | 0.00 | 0.00 | 0.00 | 76 | 1014.7 |
| 20260507035004 | 49 | 98 | 1.0 | 6.0 | 0.00 | 0.00 | 0.00 | 76 | 1014.7 |
| 20260507033505 | 49 | 143 | 1.0 | 3.0 | 0.00 | 0.00 | 0.00 | 75 | 1014.6 |
| 20260507032504 | 49 | 117 | 1.0 | 3.0 | 0.00 | 0.00 | 0.00 | 75 | 1014.6 |
| 20260507032004 | 49 | 135 | 2.0 | 5.0 | 0.00 | 0.00 | 0.00 | 74 | 1014.7 |
| 20260507031505 | 49 | 118 | 1.0 | 5.0 | 0.00 | 0.00 | 0.00 | 74 | 1014.7 |
| 20260507030504 | 49 | 79 | 2.0 | 5.0 | 0.00 | 0.00 | 0.00 | 74 | 1014.6 |
| 20260507025005 | 49 | 96 | 1.0 | 7.0 | 0.00 | 0.00 | 0.00 | 73 | 1014.7 |
| 20260507023005 | 49 | 115 | 1.0 | 5.0 | 0.00 | 0.00 | 0.00 | 73 | 1014.6 |
| 20260507022505 | 49 | 98 | 2.0 | 5.0 | 0.00 | 0.00 | 0.00 | 73 | 1014.6 |
| 20260507022004 | 49 | 116 | 1.0 | 6.0 | 0.00 | 0.00 | 0.00 | 73 | 1014.6 |
| 20260507021005 | 50 | 115 | 2.0 | 5.0 | 0.00 | 0.00 | 0.00 | 72 | 1014.6 |
| 20260507015505 | 50 | 95 | 1.0 | 5.0 | 0.00 | 0.00 | 0.00 | 72 | 1014.6 |
| 20260507015005 | 50 | 93 | 2.0 | 3.0 | 0.00 | 0.00 | 0.00 | 72 | 1014.7 |
| 20260507014504 | 50 | 81 | 2.0 | 3.0 | 0.00 | 0.00 | 0.00 | 72 | 1014.6 |
| 20260507013505 | 50 | 74 | 0.0 | 5.0 | 0.00 | 0.00 | 0.00 | 72 | 1014.7 |
| 20260507013005 | 50 | 89 | 2.0 | 7.0 | 0.00 | 0.00 | 0.00 | 71 | 1014.6 |
| 20260507012505 | 50 | 111 | 2.0 | 7.0 | 0.00 | 0.00 | 0.00 | 71 | 1014.6 |
| 20260507011005 | 51 | 79 | 1.0 | 3.0 | 0.00 | 0.00 | 0.00 | 71 | 1014.6 |
| 20260507010005 | 51 | 78 | 1.0 | 5.0 | 0.00 | 0.00 | 0.00 | 71 | 1014.6 |
| 20260507005505 | 51 | 83 | 1.0 | 5.0 | 0.00 | 0.00 | 0.00 | 71 | 1014.5 |
| 20260507004505 | 51 | 121 | 0.0 | 3.0 | 0.00 | 0.00 | 0.00 | 71 | 1014.6 |
| 20260507002505 | 51 | 117 | 1.0 | 5.0 | 0.00 | 0.00 | 0.00 | 71 | 1014.7 |
| 20260507002004 | 51 | 74 | 1.0 | 3.0 | 0.00 | 0.00 | 0.00 | 72 | 1014.7 |
| 20260507001505 | 51 | 72 | 1.0 | 3.0 | 0.00 | 0.00 | 0.00 | 72 | 1014.7 |
| 20260507001005 | 50 | 77 | 2.0 | 3.0 | 0.00 | 0.00 | 0.00 | 72 | 1014.7 |
| 20260506233505 | 50 | 126 | 0.0 | 0.0 | 0.00 | 0.00 | 0.00 | 79 | 1014.7 |
| 20260506232505 | 50 | 126 | 0.0 | 1.0 | 0.00 | 0.00 | 0.00 | 80 | 1014.7 |
| 20260506231504 | 50 | 126 | 0.0 | 1.0 | 0.00 | 0.00 | 0.00 | 80 | 1014.7 |
| 20260506231004 | 50 | 126 | 0.0 | 1.0 | 0.00 | 0.00 | 0.00 | 80 | 1014.7 |
| 20260506230504 | 50 | 126 | 0.0 | 1.0 | 0.00 | 0.00 | 0.00 | 81 | 1014.7 |
| 20260506230004 | 50 | 126 | 0.0 | 1.0 | 0.00 | 0.00 | 0.00 | 82 | 1014.8 |
| 20260506225504 | 50 | 126 | 0.0 | 0.0 | 0.00 | 0.00 | 0.00 | 81 | 1014.7 |
| 20260506224504 | 50 | 126 | 0.0 | 0.0 | 0.00 | 0.00 | 0.00 | 81 | 1014.8 |
| 20260506223505 | 50 | 126 | 0.0 | 0.0 | 0.00 | 0.00 | 0.00 | 80 | 1014.6 |
| 20260506221504 | 51 | 126 | 0.0 | 0.0 | 0.00 | 0.00 | 0.00 | 79 | 1014.6 |
| 20260506220504 | 51 | 126 | 0.0 | 1.0 | 0.00 | 0.00 | 0.00 | 78 | 1014.6 |
| 20260506215504 | 51 | 126 | 0.0 | 2.0 | 0.00 | 0.00 | 0.00 | 77 | 1014.5 |
| 20260506214505 | 52 | 126 | 0.0 | 3.0 | 0.00 | 0.00 | 0.00 | 76 | 1014.5 |
| 20260506214005 | 52 | 127 | 0.0 | 2.0 | 0.00 | 0.00 | 0.00 | 76 | 1014.5 |
| 20260506213005 | 52 | 127 | 0.0 | 2.0 | 0.00 | 0.00 | 0.00 | 75 | 1014.6 |
| 20260506211005 | 53 | 138 | 1.0 | 3.0 | 0.00 | 0.00 | 0.00 | 75 | 1014.4 |
| 20260506210504 | 54 | 144 | 1.0 | 3.0 | 0.00 | 0.00 | 0.00 | 74 | 1014.4 |
| 20260506205504 | 54 | 144 | 1.0 | 2.0 | 0.00 | 0.00 | 0.00 | 74 | 1014.3 |
| 20260506203504 | 54 | 144 | 1.0 | 2.0 | 0.00 | 0.00 | 0.00 | 73 | 1014.2 |
| 20260506203005 | 55 | 144 | 0.0 | 2.0 | 0.00 | 0.00 | 0.00 | 72 | 1014.2 |
| 20260506202505 | 55 | 144 | 0.0 | 2.0 | 0.00 | 0.00 | 0.00 | 72 | 1014.2 |
| 20260506202004 | 55 | 144 | 1.0 | 1.0 | 0.00 | 0.00 | 0.00 | 71 | 1014.1 |
| 20260506201505 | 55 | 144 | 0.0 | 2.0 | 0.00 | 0.00 | 0.00 | 70 | 1014.1 |
| 20260506200504 | 55 | 144 | 0.0 | 3.0 | 0.00 | 0.00 | 0.00 | 69 | 1014.1 |
| 20260506195504 | 55 | 184 | 1.0 | 3.0 | 0.00 | 0.00 | 0.00 | 66 | 1013.9 |
| 20260506194004 | 56 | 149 | 2.0 | 3.0 | 0.00 | 0.00 | 0.00 | 60 | 1013.8 |
| 20260506193005 | 56 | 39 | 0.0 | 3.0 | 0.00 | 0.00 | 0.00 | 56 | 1013.8 |
| 20260506185504 | 57 | 23 | 2.0 | 5.0 | 0.00 | 0.00 | 0.00 | 52 | 1013.6 |
| 20260506184505 | 58 | 12 | 2.0 | 3.0 | 0.00 | 0.00 | 0.00 | 52 | 1013.6 |
| 20260506183504 | 58 | 22 | 1.0 | 3.0 | 0.00 | 0.00 | 0.00 | 53 | 1013.5 |
| 20260506182504 | 58 | 338 | 2.0 | 3.0 | 0.00 | 0.00 | 0.00 | 52 | 1013.5 |
| 20260506182005 | 58 | 22 | 2.0 | 3.0 | 0.00 | 0.00 | 0.00 | 52 | 1013.5 |
| 20260506180505 | 58 | 333 | 2.0 | 3.0 | 0.00 | 0.00 | 0.00 | 51 | 1013.4 |
| 20260506180006 | 58 | 48 | 1.0 | 3.0 | 0.00 | 0.00 | 0.00 | 50 | 1013.3 |
| 20260506175505 | 58 | 8 | 2.0 | 3.0 | 0.00 | 0.00 | 0.00 | 51 | 1013.3 |
| 20260506175005 | 58 | 24 | 1.0 | 3.0 | 0.00 | 0.00 | 0.00 | 51 | 1013.3 |
| 20260506174004 | 59 | 320 | 1.0 | 3.0 | 0.00 | 0.00 | 0.00 | 49 | 1013.2 |
| 20260506173504 | 59 | 358 | 2.0 | 5.0 | 0.00 | 0.00 | 0.00 | 49 | 1013.1 |
| 20260506173005 | 59 | 38 | 2.0 | 5.0 | 0.00 | 0.00 | 0.00 | 48 | 1013.2 |
| 20260506171504 | 59 | 3 | 2.0 | 5.0 | 0.00 | 0.00 | 0.00 | 48 | 1013.1 |
| 20260506164004 | 60 | 5 | 2.0 | 8.0 | 0.00 | 0.00 | 0.00 | 48 | 1013.1 |
| 20260506163504 | 60 | 10 | 3.0 | 8.0 | 0.00 | 0.00 | 0.00 | 47 | 1013.2 |
| 20260506163005 | 60 | 340 | 2.0 | 5.0 | 0.00 | 0.00 | 0.00 | 47 | 1013.1 |
| 20260506161505 | 60 | 5 | 1.0 | 5.0 | 0.00 | 0.00 | 0.00 | 48 | 1013.1 |
| 20260506161005 | 60 | 333 | 2.0 | 5.0 | 0.00 | 0.00 | 0.00 | 46 | 1013.1 |
| 20260506160504 | 60 | 34 | 2.0 | 7.0 | 0.00 | 0.00 | 0.00 | 47 | 1013.1 |
| 20260506160005 | 60 | 21 | 3.0 | 7.0 | 0.00 | 0.00 | 0.00 | 47 | 1013.1 |
| 20260506155505 | 60 | 2 | 2.0 | 6.0 | 0.00 | 0.00 | 0.00 | 47 | 1013.1 |
| 20260506155005 | 60 | 343 | 2.0 | 6.0 | 0.00 | 0.00 | 0.00 | 48 | 1013.1 |
| 20260506153505 | 60 | 6 | 3.0 | 5.0 | 0.00 | 0.00 | 0.00 | 47 | 1013.2 |
| 20260506150505 | 61 | 16 | 3.0 | 8.0 | 0.00 | 0.00 | 0.00 | 46 | 1013.2 |
| 20260506150005 | 61 | 331 | 3.0 | 7.0 | 0.00 | 0.00 | 0.00 | 48 | 1013.2 |
| 20260506145004 | 61 | 30 | 5.0 | 8.0 | 0.00 | 0.00 | 0.00 | 46 | 1013.3 |
| 20260506144504 | 61 | 303 | 2.0 | 8.0 | 0.00 | 0.00 | 0.00 | 47 | 1013.3 |
| 20260506144004 | 61 | 102 | 3.0 | 8.0 | 0.00 | 0.00 | 0.00 | 45 | 1013.3 |
| 20260506143505 | 61 | 29 | 3.0 | 9.0 | 0.00 | 0.00 | 0.00 | 49 | 1013.4 |
| 20260506143005 | 61 | 36 | 3.0 | 9.0 | 0.00 | 0.00 | 0.00 | 47 | 1013.4 |
| 20260506141505 | 61 | 34 | 4.0 | 8.0 | 0.00 | 0.00 | 0.00 | 48 | 1013.4 |
| 20260506140505 | 61 | 0 | 3.0 | 8.0 | 0.00 | 0.00 | 0.00 | 48 | 1013.5 |